CZ-6A DEB, 54576

Orbit data source: Space-Track

CZ-6A DEB, 54576 is space debris in SSO originally from a launch on Fri, 11 Nov 2022 UTC launched from the Taiyaun Space Center, China (TSC). Debris objects in space refer to the collection of defunct objects orbiting the Earth. Examples of debris include non-operational satellites, rocket bodies, and fragments generated from explosions, collisions, or faulty payload assembly.

Loading next visibility...
Identifier
54576, 2022-151MC
Orbit
SSO
Country
Flag of CNCN / PRC
Related business
Manufacturer
SAST
Mission
Spacecraft
Bus & Motor
Unknown
Mass
Unknown
Launch date (UTC)
2022-11-11 (4 years ago)
Launch vehicle
Unknown
Launch site
Taiyaun Space Center, China (TSC)
Object type
Payload
Rocket body
Debris
Shape & HBR
Unknown shape, 0.1 m
Radar Cross Section
Medium (>0.1 m² and <1 m²)

Expand to show TLE details & history
Last TLE update: 2 days ago

TLE from 2 days ago
0 CZ-6A DEB
1 54576U 22151MC  26171.46068007  .00028537  00000-0  27816-2 0  9997
2 54576  98.6206 244.2953 0041844 247.8168 111.8605 14.91760845119622
Epoch: 2026-06-20T11:03Z
TLE epoch observation values (Epoch: 2026-06-20T11:03:22.758Z)
Latitude
-0.00005°
Longitude
169.7755°
Altitude
606.428 km
Speed
7.55 km/s
True Right ascension
16h 17m 10s
True Declination
0° 00' 00"
Sunlit
Object was in full shadow at epoch
Visualization orbit readout
Latitude
Unknown
Longitude
Unknown
Altitude
Unknown
Speed
Unknown
Apparent Right ascension
Unknown
Apparent Declination
Unknown
Sunlit
N/A
Visualization observer readout
Local Sidereal Time
21:23:42
Azimuth
Unknown
Elevation
Unknown
Doppler factor
Unknown
Orbital elements
Apogee altitude
618.659 km
Perigee altitude
560.349 km
Semi-major axis
6,967.641 km
Eccentricity
0.00418
Inclination
98.6206°
RAAN
244.2953°
Arg. of periapsis
247.8168°
True anomaly
112.30465°
Mean anomaly
111.8605°
Eccentric anomaly
112.08266°
Mean motion
3.73177 °/min
Orbital period
96.47 mins
BSTAR
0.0027816
Loading maneuver chart data...
Computing Atmospheric mass density...
Loading historical data...
Loading historical data...
Loading historical data...
Loading historical data...
Loading historical data...
Loading historical data...
Loading historical data...

Documentation

Showing up to 5 results
|